Regional Weather Roundup
Issued by NWS

Home | Current Version | Previous Version | Text Only | Print | Product List | Glossary On
Versions: 1 2 3 4 5 6 7 8 9 10 11 12 13 14 15 16 17 18 19 20 21 22 23 24 25 26 27 28 29 30 31 32 33 34 35 36 37 38 39 40 41 42 43 44 45 46 47 48 49 50
000
ASUS43 KMPX 301210
RWRMN
WEATHER ROUNDUP FOR MINNESOTA
NATIONAL WEATHER SERVICE TWIN CITIES/CHANHASSEN MN
700 AM CDT TUE AUG 30 2016


NOTE: "FAIR" INDICATES FEW OR NO CLOUDS BELOW 12,000 FEET WITH NO
SIGNIFICANT WEATHER AND/OR OBSTRUCTIONS TO VISIBILITY. N/A MEANS
CURRENT SKY AND/OR WEATHER CONDITIONS ARE NOT AVAILABLE.

MNZ060>063-068>070-301300-
   Twin Cities Metro

CITY           SKY/WX    TMP DP  RH WIND       PRES   REMARKS
TWIN CITIES    MOCLDY    67  64  90 NW8       30.16R
6HR MIN TEMP:  67; 6HR MAX TEMP:  70; 6HR PCP:  0.39;

ST PAUL        FAIR      67  65  93 NW7       30.16R
CRYSTAL        FAIR      66  62  87 W5        30.15R
BLAINE         MOCLDY    66  66 100 CALM      30.16S
LAKEVILLE      FAIR      64  64 100 N9        30.15S
EDEN PRAIRIE   FAIR      68  64  87 NW9       30.15R
6HR MIN TEMP:  68; 6HR MAX TEMP:  71; 6HR PCP:  0.29;

LAKEVILLE      FAIR      64  64 100 N9        30.15S
SOUTH ST PAUL  FAIR      67  65  95 N3        30.16R
LAKE ELMO      FAIR      64  64 100 N3        30.17R
$$
MNZ001>005-007-008-013>017-022>024-027-028-301300-
   Northwest Minnesota

CITY           SKY/WX    TMP DP  RH WIND       PRES   REMARKS
BEMIDJI        FAIR      46  46 100 W3        30.24S
HALLOCK        FAIR      46  45  93 CALM      30.25R
ROSEAU         FAIR      46  43  87 CALM      30.25R
WARROAD        FAIR      46  43  87 W3        30.24S
THIEF RVR FALL FAIR      46  46 100 CALM      30.26R
CROOKSTON      FAIR      50  48  93 CALM      30.25S
FOSSTON        FOG       45  45 100 CALM      30.26R VSB 1/2
DETROIT LAKES  FAIR      55  55 100 CALM      30.25S
MOORHEAD       FAIR      52  48  87 CALM      30.25S
PARK RAPIDS    FAIR      51  48  89 NW3       30.24R
MAHNOMEN       FAIR      50  50  99 CALM      30.25S FOG
$$
MNZ006-009>011-018-025>026-301300-
   North Central Minnesota

CITY           SKY/WX    TMP DP  RH WIND       PRES   REMARKS
BAUDETTE       FAIR      48  47  96 CALM      30.22S
FLAG ISLAND    FAIR      54  48  82 CALM      30.22S HAZE
INTL FALLS     FAIR      48  46  93 CALM      30.21R
6HR MIN TEMP:  43; 6HR MAX TEMP:  54;

WASKISH        FAIR      52  52 100 N3        30.23S
BIG FORK       FOG       48  46  93 CALM      30.22R VSB<1/4
LONGVILLE      FAIR      52  52 100 CALM      30.22R FOG
GRAND RAPIDS   FOG       50  50 100 CALM      30.23R VSB 1/4
ORR            FAIR      54  52  94 CALM      30.18R
COOK           FOG       50  50 100 CALM      30.21R VSB 1/4
WALKER         FAIR      51  50  99 W3        30.24R
$$
MNZ012-019>021-037-301300-
   Northeast Minnesota

CITY           SKY/WX    TMP DP  RH WIND       PRES   REMARKS
DULUTH         FAIR      62  61  96 N7        30.17R
6HR MIN TEMP:  62; 6HR MAX TEMP:  66;

ELY            FAIR      54  52  94 CALM      30.18S
HIBBING        FAIR      52  52 100 NW10      30.20R FOG
EVELETH        FAIR      58  56  94 NW5       30.20R
DULUTH HARBOR  FAIR      66  61  82 N7        30.16R
TWO HARBORS    FAIR      63  57  82 CALM      30.14R
SILVER BAY     FAIR      63  59  88 NW3       30.13R
GRAND MARAIS     N/A     63  57  81 VRB3      30.10S
G MARAIS ARPRT FAIR      55  52  88 N7        30.15S
$$
MNZ029>031-032-039>041-046>048-054>057-064-301300-
   West Central Minnesota

CITY           SKY/WX    TMP DP  RH WIND       PRES   REMARKS
FERGUS FALLS   FAIR      57  57 100 NE3       30.25R
WHEATON        FAIR      57  57 100 CALM      30.24S
MORRIS         CLOUDY    59  57  94 NW3       30.21R VSB 1/4
ALEXANDRIA     FAIR      61  57  87 N9        30.23S
ELBOW LAKE     FAIR      59  58  97 NE6       30.23R
WADENA         FAIR      54  52  94 N7        30.23R
GLENWOOD       FAIR      61  57  88 N6        30.23R
APPLETON       FAIR      63  59  88 CALM      30.20S
BENSON         FAIR      61  57  88 CALM      30.21R
ORTONVILLE     FAIR      59  55  88 CALM      30.22R
MADISON        FAIR      64  63  94 NW7       30.21S
WILLMAR        CLOUDY    66  66 100 CALM      30.21R
$$
MNZ033>034-036-042>043-049>051-058-059-301300-
   Central Minnesota

CITY           SKY/WX    TMP DP  RH WIND       PRES   REMARKS
ST CLOUD       CLOUDY    64  64 100 NW5       30.18S
6HR MIN TEMP:  61; 6HR MAX TEMP:  66;

SAUK CENTRE    FAIR      61  59  95 CALM      30.22R
PAYNESVILLE    FAIR      66  66 100 N5        30.20S
AITKIN           N/A     57  52  82 CALM      30.20R
PINE RIVER     FAIR      54  54 100 CALM      30.25R
BRAINERD       FAIR      60  56  86 N8        30.22R
STAPLES        FAIR      54  52  94 CALM      30.23R
LONG PRAIRIE   FAIR      57  55  94 NW5       30.22R
LITTLE FALLS   FAIR      61  55  82 N3        30.21R
LITCHFIELD     FAIR      66  66 100 NW5       30.19S
BUFFALO        FAIR      66  64  92 NW3       30.18R
MAPLE LAKE     FAIR      67  66  97 NW6       30.19R
HUTCHINSON     FAIR      67  66  98 W5        30.19R
$$
MNZ037-044-045-052-053-301300-
   East Central Minnesota

CITY           SKY/WX    TMP DP  RH WIND       PRES   REMARKS
PRINCETON        N/A     63  63 100 NW3       30.17S
MORA           FAIR      61  59  94 N5        30.18R
CAMBRIDGE      FAIR      64  61  88 CALM      30.15R
RUSH CITY      FAIR      63  61  95 CALM      30.16R
MOOSE LAKE     FAIR      61  57  88 N5        30.16S
HINCKLEY       FAIR      63  63 100 N7        30.16R
CLOQUET        FAIR      61  57  88 NW5       30.18R
MCGREGOR       FAIR      55  54  94 NW5       30.20R
$$
MNZ071>073-080-081-089-090-097-098-301300-
   Southwest Minnesota

CITY           SKY/WX    TMP DP  RH WIND       PRES   REMARKS
MONTEVIDEO     MOCLDY    64  64 100 CALM      30.22R
GRANITE FALLS  CLOUDY    69  68  96 CALM      30.21S
CANBY          FAIR      65  63  91 W6        30.23R
MARSHALL       MOCLDY    67  65  93 NW6       30.21R
REDWOOD FALLS  FAIR      66  64  93 NW6       30.19R
OLIVIA         CLOUDY    64  63  94 CALM      30.19R
PIPESTONE        N/A     70  66  88 SE7       30.22S
WINDOM         FAIR      64  63  94 W3        30.20R
WORTHINGTON    FAIR      65  63  93 E5        30.22F
JACKSON        FAIR      64  63  94 SW3       30.19F
TRACY          FAIR      67  65  94 SW8       30.21R
SLAYTON        MOCLDY    64  63  94 S6        30.22F
$$
MNZ065>067-074>077-082>085-091>093-301300-
   South Central Minnesota

CITY           SKY/WX    TMP DP  RH WIND       PRES   REMARKS
NEW ULM        FAIR      64  64 100 W9        30.15S
ST JAMES       FAIR      64  64 100 SW5       30.16F
FAIRMONT       FAIR      66  64  93 S6        30.15F
GLENCOE        FAIR      65  65 100 NW3       30.17R
FARIBAULT      FAIR      66  64  94 NW6       30.17R
OWATONNA       FAIR      68  63  83 CALM      30.13S
WASECA         FAIR      64  61  88 SW6       30.13F
ALBERT LEA     FAIR      66  66 100 CALM      30.15F
$$
MNZ078>079-086>088-094>096-301300-
   Southeast Minnesota

CITY           SKY/WX    TMP DP  RH WIND       PRES   REMARKS
ROCHESTER      FAIR      65  64  97 S6        30.13F
6HR MIN TEMP:  65; 6HR MAX TEMP:  70; 6HR PCP: TRACE;

RED WING       FAIR      66  63  88 N3        30.13R
STANTON        FAIR      68  63  83 N3        30.13S
DODGE CENTER   FAIR      66  63  88 N5        30.15R
WINONA         FAIR      70  64  83 SW5       30.09F
AUSTIN         FAIR      64  63  94 W6        30.14F
PRESTON        FAIR      65  64  96 S8        30.14F FOG
$$
ABBREVIATIONS USED IN REMARKS
   TC - TEMPERATURES IN CELSIUS
  WCI - WIND CHILL INDEX
   HX - HEAT INDEX
  VSB - VISIBILITY
$$



USA.gov is the U.S. government's official web portal to all federal, state and local government web resources and services.